Omaha, IA

4:29 PM CDT on April 28, 2017 (GMT -0500)
Eppley Airfield

Weather History for KOMA - April, 2014

Change the Weather History Date:

Sunday, April 20, 2014

  Actual Average Record
Temperature  
Mean Temperature 72 °F 54 °F  
Max Temperature 85 °F 65 °F 92 °F (1902)
Min Temperature 58 °F 42 °F 23 °F (2013)
Degree Days  
Heating Degree Days 0 12  
Month to date heating degree days 315 310  
Since 1 July heating degree days 6299 5899  
Cooling Degree Days 7 1  
Month to date cooling degree days 15 4  
Year to date cooling degree days 15 5  
Growing Degree Days 20 (Base 50)    
Moisture  
Dew Point 51 °F    
Average Humidity 58    
Maximum Humidity 84    
Minimum Humidity 31    
Precipitation  
Precipitation 0.02 in 0.10 in 2.09 in (1905)
Month to date precipitation 1.58 1.79  
Year to date precipitation 2.65 5.35  
Snow  
Snow 0.00 in 0.00 in - ()
Month to date snowfall 0.6 0.8  
Since 1 July snowfall 17.8 26.2  
Snow Depth 0.00 in    
Sea Level Pressure  
Sea Level Pressure 29.95 in    
Wind  
Wind Speed 11 mph (South)    
Max Wind Speed 26 mph    
Max Gust Speed 36 mph    
Visibility 10 miles    
Events Rain    
T = Trace of Precipitation, MM = Missing Value Source: NWS Daily Summary

Daily Weather History Graph

Daily Weather History Graph

Search for Another Location

Airport or City:

Trip Planner

Search our weather history database for the weather conditions in past years. The results will help you decide how hot, cold, wet, or windy it might be!

Date:

Astronomy

Apr. 20, 2014 Rise Set
Actual Time 6:36 AM CDT 8:09 PM CDT
Civil Twilight 6:07 AM CDT 8:38 PM CDT
Nautical Twilight 5:32 AM CDT 9:13 PM CDT
Astronomical Twilight 4:55 AM CDT 9:50 PM CDT
Moon 12:51 AM CDT (4/20) 10:56 AM CDT (4/20)
Length of Visible Light 14h 30m
Length of Day
13h 32m
Waning Gibbous, 68% of the Moon is Illuminated
Apr 20
Waning Gibbous
Apr 22
Last Quarter
Apr 29
New
May 6
First Quarter
May 14
Full

Hourly Weather History & Observations

Time (CDT) Temp. Dew Point Humidity Pressure Visibility Wind Dir Wind Speed Gust Speed Precip Events Conditions
12:52 AM 66.9 °F 44.1 °F 44% 29.97 in 10.0 mi South 16.1 mph - N/A   Mostly Cloudy
1:52 AM 64.9 °F 44.1 °F 47% 29.97 in 10.0 mi SSE 16.1 mph - N/A   Scattered Clouds
2:52 AM 64.0 °F 44.1 °F 48% 29.97 in 10.0 mi SSE 16.1 mph - N/A   Mostly Cloudy
3:52 AM 64.0 °F 45.0 °F 50% 29.96 in 10.0 mi SSE 13.8 mph - N/A   Mostly Cloudy
4:52 AM 64.0 °F 45.0 °F 50% 29.96 in 10.0 mi South 10.4 mph - N/A   Mostly Cloudy
5:52 AM 61.0 °F 46.0 °F 58% 29.96 in 10.0 mi SSE 8.1 mph - N/A   Scattered Clouds
6:52 AM 59.0 °F 46.9 °F 64% 29.97 in 10.0 mi SSE 9.2 mph - N/A   Scattered Clouds
7:52 AM 63.0 °F 48.0 °F 58% 29.97 in 10.0 mi SSE 10.4 mph - N/A   Mostly Cloudy
8:52 AM 66.0 °F 48.9 °F 54% 29.98 in 10.0 mi South 8.1 mph - N/A   Mostly Cloudy
9:52 AM 69.1 °F 50.0 °F 51% 29.97 in 10.0 mi South 12.7 mph - N/A   Mostly Cloudy
10:52 AM 73.0 °F 51.1 °F 46% 29.98 in 10.0 mi WSW 10.4 mph - N/A   Overcast
11:52 AM 75.0 °F 50.0 °F 41% 29.96 in 10.0 mi SW 9.2 mph - N/A   Overcast
12:52 PM 78.8 °F 51.8 °F 39% 29.97 in 10.0 mi SSW 13.8 mph 19.6 mph N/A   Mostly Cloudy
1:52 PM 79.0 °F 51.1 °F 38% 29.94 in 10.0 mi South 6.9 mph - N/A   Overcast
2:52 PM 81.0 °F 50.0 °F 34% 29.91 in 10.0 mi SSW 11.5 mph - N/A   Overcast
3:52 PM 82.9 °F 48.9 °F 31% 29.88 in 10.0 mi Variable 4.6 mph - N/A   Overcast
4:52 PM 82.9 °F 50.0 °F 32% 29.87 in 10.0 mi South 12.7 mph 19.6 mph N/A   Mostly Cloudy
5:52 PM 80.1 °F 50.0 °F 35% 29.88 in 10.0 mi WSW 19.6 mph 31.1 mph N/A   Overcast
6:16 PM 75.0 °F 51.1 °F 43% 29.92 in 10.0 mi South 16.1 mph - N/A   Overcast
6:52 PM 70.0 °F 55.9 °F 61% 29.93 in 10.0 mi South 11.5 mph - 0.00 in Rain Light Rain
7:27 PM 69.1 °F 55.9 °F 63% 29.94 in 10.0 mi South 6.9 mph - 0.00 in Rain Light Rain
7:52 PM 66.0 °F 57.0 °F 73% 29.93 in 10.0 mi South 11.5 mph - 0.00 in Rain Light Rain
8:52 PM 64.9 °F 57.9 °F 78% 29.93 in 10.0 mi SSW 5.8 mph - 0.00 in   Overcast
9:52 PM 64.0 °F 57.0 °F 78% 29.95 in 10.0 mi South 8.1 mph - 0.00 in Rain Light Rain
10:39 PM 63.0 °F 57.9 °F 84% 29.97 in 10.0 mi SSE 6.9 mph - 0.01 in Rain Light Rain
10:52 PM 62.1 °F 57.9 °F 86% 29.96 in 10.0 mi SE 10.4 mph - 0.01 in Rain Light Rain
11:52 PM 62.1 °F 57.9 °F 86% 29.94 in 10.0 mi SSE 10.4 mph - 0.01 in   Overcast